Weather in Uxmal

Mexico     20°24′12″N   89°45′51″W
temp.,
°C
wind,
m/s
gust,
m/s
humid.,
%
clouds,
%
prec.,
mm/h
press.,
hPa
HPBL,
m
28 february, sun
sun2801:00+23ese310810 0.0 1015608
04:00+21ese210910 0.0 1013551
07:00+21ese312920 0.0 1015695
10:00+27se510638 0.0 10151254
13:00+32se59435 0.0 10131854
16:00+33se584226 0.0 10102186
19:00+29ese285753 0.0 1011902
22:00+26se3106745 0.0 10141002
1 march, mon
mon101:00+24se3117923 0.0 1014838
04:00+22ese211920 0.0 1013648
07:00+21ese312930 0.0 1014630
10:00+28ese510637 0.0 10151156
13:00+34se59393 0.0 10132106
16:00+32sse384466 0.0 10102003
19:00+30ese284670 0.0 1011442
22:00+26ese4115716 0.0 1014635
2 march, tue
tue201:00+23ese39778 0.0 1015440
04:00+21ese27880 0.0 1014271
07:00+20ese26982 0.0 1015208
10:00+28ese36598 0.0 10171022
13:00+34ese23344 0.0 10152130
16:00+36ene13256 0.0 10122813
19:00+29wnw374046 0.0 1013295
22:00+24n397853 0.0 1016512
3 march, wed
wed301:00+22nne128828 0.0 101681
04:00+21se12900 0.0 101550
07:00+20sse12950 0.0 101660
10:00+28s23610 0.0 1017766
13:00+36se12330 0.0 10161973
16:00+28wnw476297 0.2 1014662
19:00+25n488177 0.3 1015571
22:00+23nne398660 0.0 1017586
4 march, thu
thu401:00+23nne268472 0.1 1017561
04:00+23n268690 0.1 1017305
07:00+21nne149380 0.3 1017205
10:00+24n248166 0.9 1019554
13:00+31n224758 1.2 10171360
16:00+29nnw445181 0.4 10151378
19:00+24n476769 0.4 1016777
22:00+20nne278213 0.0 1018440